Weather History for Scappoose, OR

Change the Weather History Date:

Friday, November 8, 2013

  Actual Average Record
Temperature  
Mean Temperature 48 °F -  
Max Temperature 53 °F - 57 °F (1999)
Min Temperature 42 °F - 30 °F (2001)
Degree Days  
Heating Degree Days 17    
Month to date heating degree days 131  
Since 1 July heating degree days 701  
Cooling Degree Days 0    
Month to date cooling degree days 0  
Year to date cooling degree days 396  
Moisture  
Dew Point 43 °F    
Average Humidity 85    
Maximum Humidity 93    
Minimum Humidity 77    
Precipitation  
Precipitation 0.03 in - 0.44 in (2000)
Month to date precipitation 1.96  
Year to date precipitation 24.47  
Sea Level Pressure  
Sea Level Pressure 30.16 in    
Wind  
Wind Speed 2 mph (WSW)    
Max Wind Speed 8 mph    
Max Gust Speed 11 mph    
Visibility 8 miles    
Events Fog , Rain    
T = Trace of Precipitation, MM = Missing Value Source: NWS Daily Summary

Daily Weather History Graph

Daily Weather History Graph

Search for Another Location

Airport:

Trip Planner

Search our weather history database for the weather conditions in past years. The results will help you decide how hot, cold, wet, or windy it might be!

Date:

Astronomy

Nov. 08, 2013 Rise Set
Actual Time 7:01 AM PST 4:47 PM PST
Civil Twilight 6:30 AM PST 5:19 PM PST
Nautical Twilight 5:54 AM PST 5:55 PM PST
Astronomical Twilight 5:19 AM PST 6:30 PM PST
Moon 12:01 PM PST (11/8) 10:16 PM PST (11/8)
Length of Visible Light 10h 49m
Length of Day
9h 46m
Waxing Crescent, 34% of the Moon is Illuminated
Nov 8
Waxing Crescent
Nov 9
First Quarter
Nov 17
Full
Nov 25
Last Quarter
Dec 2
New

Hourly Weather History & Observations

Time (PST) Temp. Windchill Dew Point Humidity Pressure Visibility Wind Dir Wind Speed Gust Speed Precip Events Conditions
12:53 AM 48.0 °F - 44.1 °F 86% 30.12 in 10.0 mi South 4.6 mph - N/A   Mostly Cloudy
1:32 AM 46.9 °F - 45.0 °F 93% 30.13 in 10.0 mi SSW 3.5 mph - N/A   Overcast
1:53 AM 46.9 °F - 44.1 °F 90% 30.14 in 10.0 mi Calm Calm - N/A   Overcast
2:17 AM 46.9 °F - 44.1 °F 90% 30.14 in 10.0 mi SSW 5.8 mph - N/A   Overcast
2:53 AM 48.0 °F - 43.0 °F 83% 30.14 in 10.0 mi SW 3.5 mph - N/A   Partly Cloudy
3:53 AM 46.0 °F - 44.1 °F 93% 30.14 in 10.0 mi Calm Calm - N/A   Mostly Cloudy
4:53 AM 45.0 °F 43.5 °F 43.0 °F 93% 30.15 in 10.0 mi West 3.5 mph - N/A   Overcast
5:53 AM 46.9 °F - 43.0 °F 86% 30.16 in 10.0 mi South 4.6 mph - N/A   Overcast
6:53 AM 46.9 °F - 43.0 °F 86% 30.17 in 10.0 mi South 3.5 mph - N/A   Overcast
7:53 AM 46.9 °F - 43.0 °F 86% 30.18 in 10.0 mi Calm Calm - N/A   Overcast
8:53 AM 48.9 °F - 44.1 °F 83% 30.19 in 10.0 mi SSW 3.5 mph - N/A   Overcast
9:53 AM 51.1 °F - 45.0 °F 80% 30.19 in 10.0 mi South 3.5 mph - N/A   Scattered Clouds
10:53 AM 52.0 °F - 44.1 °F 74% 30.19 in 10.0 mi SSW 5.8 mph - N/A   Mostly Cloudy
11:53 AM 51.1 °F - 44.1 °F 77% 30.18 in 5.0 mi WSW 5.8 mph - 0.01 in Rain Light Rain
12:18 PM 52.0 °F - 45.0 °F 77% 30.18 in 10.0 mi Calm Calm - 0.01 in   Overcast
12:25 PM 52.0 °F - 45.0 °F 77% 30.17 in 10.0 mi Calm Calm - 0.01 in   Overcast
12:53 PM 53.1 °F - 44.1 °F 71% 30.17 in 10.0 mi Calm Calm - 0.01 in   Overcast
1:53 PM 50.0 °F - 44.1 °F 80% 30.17 in 10.0 mi North 4.6 mph - 0.01 in   Overcast
2:53 PM 51.1 °F - 45.0 °F 80% 30.17 in 9.0 mi Calm Calm - N/A   Overcast
3:53 PM 50.0 °F - 45.0 °F 83% 30.17 in 10.0 mi Calm Calm - N/A   Mostly Cloudy
4:53 PM 50.0 °F - 45.0 °F 83% 30.16 in 10.0 mi Calm Calm - N/A   Overcast
5:53 PM 48.0 °F - 45.0 °F 89% 30.16 in 10.0 mi Calm Calm - N/A   Overcast
6:53 PM 46.0 °F - 44.1 °F 93% 30.16 in 10.0 mi Calm Calm - N/A   Mostly Cloudy
7:37 PM 44.1 °F 42.5 °F 43.0 °F 96% 30.16 in 5.0 mi WNW 3.5 mph - N/A   Mostly Cloudy
7:46 PM 44.1 °F 42.5 °F 43.0 °F 96% 30.16 in 8.0 mi WNW 3.5 mph - N/A   Overcast
7:53 PM 45.0 °F 42.6 °F 43.0 °F 93% 30.16 in 10.0 mi WNW 4.6 mph - N/A   Overcast
8:53 PM 46.0 °F - 44.1 °F 93% 30.17 in 10.0 mi Calm Calm - N/A   Overcast
9:38 PM 45.0 °F 43.5 °F 43.0 °F 93% 30.16 in 10.0 mi WNW 3.5 mph - N/A   Mostly Cloudy
9:48 PM 44.6 °F 42.2 °F 42.8 °F 93% 30.16 in 10.0 mi NW 4.6 mph - N/A   Scattered Clouds
9:53 PM 46.0 °F 44.8 °F 43.0 °F 89% 30.16 in 10.0 mi NW 3.5 mph - N/A   Partly Cloudy
10:14 PM 45.0 °F - 43.0 °F 93% 30.16 in 6.0 mi Calm Calm - N/A   Mostly Cloudy
10:28 PM 44.1 °F - 43.0 °F 96% 30.16 in 1.8 mi Calm Calm - N/A   Overcast
10:37 PM 44.1 °F - 42.1 °F 93% 30.15 in 0.8 mi Calm Calm - N/A   Overcast
10:45 PM 45.0 °F - 42.1 °F 90% 30.15 in 1.5 mi Calm Calm - N/A   Overcast
10:53 PM 45.0 °F 43.5 °F 42.1 °F 90% 30.15 in 2.5 mi NW 3.5 mph - N/A   Mostly Cloudy
10:58 PM 44.1 °F 42.5 °F 42.1 °F 93% 30.15 in 5.0 mi NNW 3.5 mph - N/A   Scattered Clouds
11:14 PM 44.1 °F - 42.1 °F 93% 30.15 in 2.0 mi Calm Calm - N/A   Clear
11:24 PM 43.0 °F - 41.0 °F 93% 30.15 in 1.2 mi Calm Calm - N/A   Partly Cloudy
11:31 PM 43.0 °F - 41.0 °F 93% 30.15 in 0.5 mi Calm Calm - N/A Fog Fog
11:53 PM 42.1 °F - 39.9 °F 92% 30.14 in 0.2 mi Calm Calm - N/A Fog Fog